DateTimeUTC,F1_A11,F1_S11,BsB_S11,BsG_S11,BsR_S11,BbsB_S11,BbsG_S11,BbsR_S11,BaB_A11,BaG_A11,BaR_A11,Tu_S11,T_S11,Uu_S11,U_S11,P_S11,T1_A11
2021-10-19T16:00:00Z,00000200,21000000,,,,,,,-000.10,-000.16,-000.20,17.5,24.4,,00.0,0674.9,31.0
2021-10-19T16:01:00Z,00000200,21000000,,,,,,,0000.06,0000.01,-000.17,17.5,24.4,,00.0,0674.9,31.0
2021-10-19T16:02:00Z,00000200,21000000,,,,,,,0000.10,-000.01,0000.21,17.5,24.4,,00.0,0674.9,31.0
2021-10-19T16:03:00Z,00000200,61000000,,,,,,,0000.06,0000.37,0000.13,17.5,24.4,,00.0,0674.9,31.0
2021-10-19T16:04:00Z,00000200,41000000,-000.07,0000.23,0000.09,-000.20,0000.02,0000.18,-000.14,0000.06,0000.05,17.7,24.3,00.2,00.1,0675.7,31.0
2021-10-19T16:05:00Z,00000200,01000000,-000.09,-000.49,0000.11,0000.49,0000.04,-000.15,-000.37,-000.72,-000.29,17.8,24.3,00.2,00.1,0675.8,31.0
2021-10-19T16:06:00Z,00000200,01000000,0000.08,-000.32,-000.16,0000.29,0000.12,-000.25,-000.20,0000.25,0000.09,17.9,24.3,00.1,00.1,0675.8,31.0
2021-10-19T16:07:00Z,00000200,01000000,0000.35,0000.00,-000.17,0000.90,-000.12,0000.16,-000.14,-000.21,-000.05,17.9,24.3,00.1,00.1,0675.8,31.0
2021-10-19T16:08:00Z,00000200,01000000,0000.04,0000.22,-000.38,0000.10,-000.06,-000.13,-000.05,-000.01,-000.27,17.9,24.3,00.1,00.0,0675.8,31.0
2021-10-19T16:09:00Z,00000200,01000000,0000.30,-000.16,0000.26,0000.33,-000.06,-000.07,-000.03,-000.28,-000.45,17.8,24.3,00.1,00.1,0675.8,31.0
2021-10-19T16:10:00Z,00000200,01000000,0000.16,-000.25,-000.05,0000.41,-000.21,0000.22,-000.19,0000.04,0000.37,17.8,24.3,00.1,00.0,0675.8,31.0
2021-10-19T16:11:00Z,00000200,01000000,-000.65,-000.30,-000.34,0000.24,0000.34,0000.10,0000.11,-000.02,0000.17,17.8,24.2,00.1,00.0,0675.8,31.0
2021-10-19T16:12:00Z,00000200,01000000,0000.45,0000.06,-000.04,-000.05,0000.12,0000.22,-000.23,-000.33,-000.06,17.7,24.2,00.0,00.0,0675.8,31.0
2021-10-19T16:13:00Z,00000200,01000000,0000.08,0000.02,-000.07,0000.13,-000.17,0000.25,0000.54,0000.34,0000.11,17.7,24.2,00.0,00.0,0675.8,31.0
2021-10-19T16:14:00Z,00000200,01000000,0000.55,-000.33,0000.03,0000.87,0000.12,-000.14,-000.46,0000.00,-000.13,17.7,24.2,00.0,00.0,0675.7,31.0
2021-10-19T16:15:00Z,00000200,01000000,-000.22,0000.01,-000.24,0000.45,0000.18,0000.04,0000.39,-000.31,-000.45,17.7,24.1,00.1,00.0,0675.7,31.0
2021-10-19T16:16:00Z,00000200,01000000,0000.14,-000.24,0000.15,0000.06,-000.35,0000.08,-000.12,0000.39,0000.59,17.6,24.1,00.1,00.1,0675.7,31.0
2021-10-19T16:17:00Z,00000200,01000000,0000.19,0000.03,-000.09,-000.33,0000.22,0000.28,0000.22,0000.21,-000.00,17.7,24.1,00.1,00.1,0675.7,31.0
2021-10-19T16:18:00Z,00000200,01000000,0000.38,0000.09,0000.01,-000.18,-000.19,0000.03,0000.12,0000.23,0000.21,17.7,24.2,00.1,00.1,0675.7,31.0
2021-10-19T16:19:00Z,00000200,01000000,-000.01,0000.09,0000.15,0000.52,0000.21,-000.25,-000.09,-000.38,0000.02,17.8,24.2,00.1,00.1,0675.7,31.0
2021-10-19T16:20:00Z,00000200,01000000,0000.08,-000.28,-000.27,0000.26,-000.14,0000.09,0000.06,0000.21,-000.59,17.8,24.2,00.1,00.1,0675.7,31.0
2021-10-19T16:21:00Z,00000200,01000000,0000.94,0000.06,-000.18,0000.64,0000.12,0000.12,-000.08,0000.21,0000.73,17.9,24.3,00.1,00.0,0675.7,31.1
2021-10-19T16:22:00Z,00000200,01000000,0000.87,0000.20,-000.13,-000.29,-000.44,-000.34,0000.29,-000.04,-000.09,17.9,24.3,00.1,00.1,0675.7,31.0
2021-10-19T16:23:00Z,00000200,01000000,0000.31,0000.04,0000.24,0000.15,0000.25,-000.12,-000.23,0000.05,-000.19,17.9,24.3,00.1,00.1,0675.7,31.0
2021-10-19T16:24:00Z,00000200,01000000,0000.03,-000.27,0000.13,0000.47,0000.02,0000.03,0000.22,0000.32,-000.08,17.9,24.3,00.1,00.0,0675.7,31.0
2021-10-19T16:25:00Z,00000200,01000000,0000.05,-000.26,0000.02,0000.51,0000.02,0000.13,0000.03,-000.32,0000.21,17.8,24.3,00.1,00.1,0675.7,31.0
2021-10-19T16:26:00Z,00000200,01000000,-000.20,-000.05,-000.07,0000.30,-000.20,-000.20,-000.03,0000.08,-000.32,17.8,24.2,00.1,00.1,0675.6,31.0
2021-10-19T16:27:00Z,00000200,01000000,0000.44,-000.14,-000.03,0000.34,-000.35,-000.16,0000.19,0000.08,0000.11,17.8,24.2,00.1,00.0,0675.6,31.0
2021-10-19T16:28:00Z,00000200,01000000,0000.58,0000.17,-000.07,0000.56,-000.25,0000.32,0000.14,0000.13,0000.58,17.7,24.2,00.1,00.1,0675.6,31.0
2021-10-19T16:29:00Z,00000200,01000000,0000.46,0000.20,-000.02,0000.27,-000.21,-000.08,-000.10,-000.13,-000.28,17.7,24.1,00.1,00.1,0675.6,31.0
2021-10-19T16:30:00Z,00000200,01000000,-000.39,0000.06,0000.09,0000.64,0000.16,-000.06,0000.13,-000.26,0000.29,17.7,24.1,00.1,00.1,0675.6,31.0
2021-10-19T16:31:00Z,00000200,01000000,0000.28,0000.26,-000.18,-000.52,-000.16,0000.05,-000.14,0000.39,-000.04,17.7,24.1,00.1,00.1,0675.6,31.0
2021-10-19T16:32:00Z,00000200,01000000,-000.04,-000.14,-000.05,-000.19,-000.12,0000.07,0000.28,-000.13,-000.18,17.7,24.1,00.1,00.1,0675.6,31.0
2021-10-19T16:33:00Z,00000200,01000000,0000.43,-000.29,-000.22,0000.36,-000.31,-000.17,0000.23,0000.39,0000.01,17.7,24.2,00.1,00.1,0675.6,31.0
2021-10-19T16:34:00Z,00000200,01000000,-000.05,-000.07,0000.07,-000.14,-000.27,-000.02,0000.11,-000.21,0000.36,17.8,24.2,00.1,00.1,0675.6,31.0
2021-10-19T16:35:00Z,00000200,01000000,0000.09,-000.50,0000.07,-000.47,-000.24,0000.40,-000.25,0000.14,-000.31,17.8,24.2,00.1,00.1,0675.6,31.0
2021-10-19T16:36:00Z,00000200,01000000,0000.25,0000.12,-000.23,-000.12,-000.08,-000.15,0000.11,-000.12,0000.32,17.9,24.3,00.1,00.1,0675.6,31.0
2021-10-19T16:37:00Z,00000200,01000000,0000.47,0000.16,-000.08,0000.43,-000.05,-000.15,0000.14,0000.08,-000.06,17.9,24.3,00.1,00.1,0675.6,31.0
2021-10-19T16:38:00Z,00000200,01000000,0000.54,-000.20,0000.09,0000.32,-000.28,-000.07,0000.42,0000.90,0000.19,17.9,24.3,00.1,00.0,0675.6,31.0
2021-10-19T16:39:00Z,00000200,01000000,0000.99,0000.08,0000.36,-000.25,0000.16,0000.27,0000.10,-000.33,0000.04,17.9,24.3,00.1,00.0,0675.6,31.0
2021-10-19T16:40:00Z,00000200,01000000,0000.26,0000.07,-000.28,0000.26,-000.25,0000.06,-000.11,0000.21,0000.08,17.9,24.3,00.1,00.1,0675.7,31.0
2021-10-19T16:41:00Z,00000200,01000000,0000.59,-000.06,-000.32,0000.36,-000.07,-000.24,0000.05,0000.07,0000.22,17.8,24.2,00.1,00.1,0675.7,31.0
2021-10-19T16:42:00Z,00000200,01000000,0000.25,0000.56,0000.11,0000.28,-000.36,0000.27,0000.05,-000.33,0000.08,17.8,24.2,00.1,00.1,0675.7,31.0
2021-10-19T16:43:00Z,00000200,01000000,0000.40,-000.20,0000.05,0000.73,-000.14,-000.02,0000.19,0000.48,-000.08,17.8,24.2,00.1,00.1,0675.6,31.0
2021-10-19T16:44:00Z,00000200,01000000,0000.39,-000.29,0000.06,-000.21,-000.08,0000.30,0000.29,-000.14,0000.40,17.7,24.2,00.2,00.1,0675.6,31.0
2021-10-19T16:45:00Z,00000200,01000000,0000.37,-000.29,0000.01,0000.28,0000.15,-000.01,0000.35,0000.21,0000.09,17.7,24.1,00.2,00.2,0675.6,31.0
2021-10-19T16:46:00Z,00000200,01000000,0000.46,-000.10,-000.05,0000.18,-000.04,-000.09,0000.69,0000.73,0000.05,17.7,24.1,00.3,00.2,0675.6,31.0
2021-10-19T16:47:00Z,00000200,01000000,0000.18,-000.11,-000.17,0000.02,0000.11,0000.23,0000.28,-000.02,0000.24,17.7,24.1,00.4,00.2,0675.6,31.0
2021-10-19T16:48:00Z,00000200,01000000,-000.18,-000.09,-000.15,-000.19,-000.06,0000.08,0000.13,0000.33,0000.12,17.8,24.2,00.4,00.3,0675.6,31.0
2021-10-19T16:49:00Z,00000200,01000000,-000.13,-000.18,0000.21,0000.60,-000.13,0000.21,-000.17,0000.25,-000.08,17.8,24.2,00.5,00.3,0675.6,31.0
2021-10-19T16:50:00Z,00000200,01000000,-000.19,0000.04,0000.15,0000.27,-000.42,0000.01,0000.26,0000.26,0000.16,17.9,24.3,00.5,00.3,0675.5,31.0
2021-10-19T16:51:00Z,00000200,01000000,0000.24,0000.08,0000.05,0000.51,-000.14,-000.27,0000.52,0000.50,0000.41,17.9,24.3,00.5,00.3,0675.5,31.1
2021-10-19T16:52:00Z,00000200,01000000,-000.12,0000.06,0000.38,0000.39,-000.21,0000.10,0000.43,0000.41,0000.41,18.0,24.3,00.5,00.3,0675.5,31.1
2021-10-19T16:53:00Z,00000200,01000000,0000.33,0000.30,0000.34,0000.60,0000.11,0000.12,0000.50,0000.28,-000.09,18.0,24.3,00.6,00.4,0675.6,31.0
2021-10-19T16:54:00Z,00000200,01000000,0000.52,-000.09,-000.10,0000.76,0000.13,-000.00,0000.43,0000.62,0000.60,18.0,24.3,00.7,00.4,0675.6,31.0
2021-10-19T16:55:00Z,00000200,01000000,0001.05,0000.03,0000.36,0000.24,0000.22,-000.03,0000.85,0000.77,0000.78,17.9,24.3,00.7,00.5,0675.6,31.0
2021-10-19T16:56:00Z,00000200,01000000,0001.34,0000.68,0000.46,0000.10,0000.02,-000.05,0000.16,0000.25,-000.09,17.9,24.3,00.9,00.6,0675.6,31.0
2021-10-19T16:57:00Z,00000200,41000000,,,,,,,-000.92,-001.02,-000.54,17.9,24.3,00.9,00.6,0675.7,31.0
2021-10-19T16:58:00Z,00000200,61000000,,,,,,,0000.34,0000.28,0000.28,17.6,24.3,00.6,00.4,0674.6,31.0
2021-10-19T16:59:00Z,00000200,21000000,,,,,,,-000.14,-000.18,-000.01,17.6,24.4,00.6,00.4,0674.6,31.0
